Wind_Speed
40 42 43 44 45 46 48 48 48 47 47 48 47 46 44 44 44 44 44 45 44 43 43 44 44 45 44 43 42 42 41 40 39 38 37 36 35 34 34 33 32 31 31 30
39 40 41 43 45 46 47 49 49 49 49 48 48 47 46 45 45 45 45 44 44 44 44 44 45 46 45 44 43 43 41 41 41 40 39 37 37 37 36 35 34 33 32 32
38 38 39 41 42 45 46 47 48 49 49 49 49 49 47 46 46 45 45 44 44 45 45 45 46 46 45 45 44 43 43 43 42 42 40 39 39 38 37 36 35 35 34 34
37 36 37 39 40 43 44 44 46 48 49 50 51 51 47 47 47 46 45 45 45 44 45 46 46 46 46 45 44 43 43 43 43 43 41 41 40 40 38 38 37 37 36 35
35 35 36 37 38 41 42 42 44 45 48 50 50 52 49 47 47 46 46 46 46 45 45 46 47 47 47 47 46 45 44 44 44 43 42 42 42 41 40 40 39 39 38 37
33 32 34 35 36 38 41 41 42 44 47 50 49 52 52 48 47 47 47 47 47 47 46 46 46 47 47 47 47 46 45 45 45 45 44 43 43 42 42 41 40 40 39 38
30 31 32 33 35 36 39 40 40 42 45 49 49 51 52 50 49 47 47 47 47 48 48 47 46 47 48 48 48 47 47 46 46 46 46 45 45 45 44 43 42 41 41 40
29 29 31 32 34 34 35 38 39 41 42 44 47 50 50 49 49 48 48 48 47 48 48 48 47 47 48 48 48 48 48 47 47 47 47 46 46 46 46 45 44 43 42 42
29 28 29 31 32 33 34 35 37 38 39 41 45 47 48 49 49 49 49 49 48 48 48 48 48 48 48 49 49 50 50 49 49 48 48 47 47 47 46 46 45 45 44 43
29 28 27 29 31 32 33 33 34 36 35 37 40 43 45 46 48 49 49 48 48 48 48 48 49 49 49 49 49 50 51 51 50 50 50 49 49 48 48 47 46 46 45 45
28 28 26 27 29 30 30 32 34 35 35 35 37 40 40 42 45 47 48 48 48 48 48 48 48 49 49 49 49 50 51 51 52 52 51 50 50 50 49 48 48 47 46 46
27 28 27 26 27 28 30 32 33 34 36 35 37 39 39 39 41 44 46 47 48 48 49 49 48 48 48 49 49 50 51 52 52 52 52 51 51 51 50 50 49 48 47 47
26 27 26 26 27 28 30 31 33 34 35 35 37 37 38 39 40 40 42 44 46 47 48 49 49 49 48 48 49 49 50 51 52 52 52 52 51 52 51 50 50 49 49 48
26 26 26 27 27 28 30 31 32 33 35 35 36 36 37 39 39 39 40 42 43 45 46 47 48 49 49 48 48 48 49 50 50 51 52 52 52 52 52 51 50 49 49 49
24 25 24 25 26 27 28 31 33 34 33 34 35 35 36 38 39 39 40 41 42 44 45 46 46 48 49 49 48 48 48 49 49 50 50 50 51 51 51 51 51 51 50 50
22 23 23 23 24 25 27 29 32 34 34 33 34 35 36 36 37 39 39 40 42 44 45 46 46 46 47 49 49 48 48 48 49 49 49 50 50 50 51 51 51 51 51 51
20 21 22 22 23 24 25 25 27 31 32 33 34 34 34 34 36 37 37 37 39 41 44 45 45 46 46 47 48 48 48 48 48 48 49 49 49 49 50 50 50 50 50 51
18 19 20 20 21 22 23 23 24 26 28 29 30 32 33 32 34 35 37 37 37 37 39 41 43 44 45 46 47 48 48 48 48 48 48 48 49 48 48 49 48 49 49 49
17 17 18 19 21 21 21 21 22 23 24 25 27 29 30 31 31 32 34 35 36 36 38 39 41 42 44 45 45 46 46 46 47 48 48 48 48 47 47 48 48 48 49 49
17 17 17 18 18 17 18 18 20 21 22 22 25 26 27 28 29 30 32 33 34 35 37 38 39 41 42 42 43 44 45 46 46 46 47 47 48 47 48 48 48 49 49 49
17 17 17 17 17 17 16 17 18 19 20 21 23 24 25 26 27 27 29 32 33 34 36 37 38 39 40 41 42 43 44 45 45 45 45 46 47 47 48 48 49 49 49 49
17 17 16 16 16 15 15 16 18 18 19 20 21 22 23 25 26 26 27 29 31 32 33 35 37 38 39 39 40 40 42 44 44 44 44 45 46 47 47 48 48 48 49 49
18 18 17 16 15 15 15 16 17 17 18 20 21 21 22 23 24 25 26 27 28 30 31 32 34 35 37 39 39 40 40 41 42 42 43 43 44 45 46 46 46 46 46 47
17 18 17 16 14 15 15 16 16 17 18 19 20 20 21 21 22 23 24 25 26 28 29 30 31 32 33 35 36 37 38 38 39 40 41 41 42 43 43 43 43 44 44 45
17 17 17 16 15 15 15 16 16 17 18 18 19 19 19 20 21 22 23 25 26 27 29 30 30 31 32 32 33 34 36 37 38 38 38 39 40 41 41 41 41 42 42 42
16 16 16 16 16 16 15 16 17 17 18 19 19 19 19 19 19 21 22 24 25 26 27 29 29 30 31 31 31 32 32 33 35 36 36 37 38 39 40 40 40 41 41 40
Wind_Direction
268 265 260 256 253 251 250 249 249 248 248 247 245 243 241 239 238 237 236 236 236 236 235 235 235 235 235 235 234 235 236 235 236 237 238 238 240 241 242 243 244 245 246 248
269 265 262 257 253 251 250 248 248 247 246 246 245 243 241 239 238 237 236 236 236 237 236 235 235 234 234 234 235 235 235 236 236 237 238 239 239 241 242 243 244 245 246 248
271 267 261 256 252 249 248 248 247 246 245 244 244 242 239 238 238 237 236 236 236 236 236 235 234 234 234 233 234 235 235 235 236 237 238 239 240 241 243 244 245 246 247 248
271 266 261 257 252 249 247 246 246 245 245 244 243 242 237 237 236 236 236 235 235 236 236 236 236 235 234 234 235 235 235 235 236 237 238 239 240 241 242 243 245 246 247 248
272 267 262 258 255 251 247 245 244 244 244 244 243 243 238 237 237 237 237 236 235 235 235 235 235 235 235 235 235 235 235 235 236 237 238 239 240 241 242 243 244 245 247 247
275 269 264 259 256 253 249 246 244 244 244 244 242 243 239 236 236 237 238 237 235 236 235 235 234 234 234 234 235 235 235 236 237 238 238 239 240 240 241 242 243 245 246 247
276 271 265 259 255 252 250 247 246 245 244 244 243 243 241 237 236 236 237 237 236 236 236 235 234 234 234 234 235 235 235 236 237 238 238 239 240 241 242 242 243 244 246 247
278 273 267 260 257 254 251 246 245 246 245 245 243 243 241 238 237 236 236 236 236 236 236 236 235 234 234 234 234 235 236 237 238 238 239 240 241 241 242 243 244 245 247 248
282 277 271 264 258 254 251 247 245 245 246 248 245 243 241 239 238 236 235 235 236 236 235 236 236 235 235 235 235 236 237 238 238 239 239 240 241 242 243 244 244 245 246 247
282 280 274 266 259 254 251 247 244 243 245 247 245 243 242 239 239 236 235 235 235 235 235 235 236 236 235 235 236 237 238 238 239 239 240 241 241 242 243 244 245 246 247 247
282 279 275 269 261 254 249 245 244 243 245 248 247 245 242 242 240 239 237 236 235 235 234 235 235 236 236 237 237 237 238 238 239 239 240 241 242 242 243 244 245 246 247 248
282 279 276 270 261 255 250 245 242 242 243 248 250 248 243 242 241 241 240 238 237 236 235 235 235 235 235 236 236 237 238 239 239 240 240 241 241 242 244 245 245 247 248 248
283 278 276 269 261 255 250 247 243 244 245 247 250 251 245 243 242 242 241 238 237 237 237 236 235 235 236 236 237 237 238 239 240 240 241 241 242 243 244 245 246 247 247 248
279 277 275 272 267 259 252 248 244 245 245 247 249 252 248 245 243 242 241 239 238 238 238 238 237 236 236 237 237 238 239 240 240 241 241 242 242 243 245 245 246 247 248 248
278 276 276 273 267 262 258 252 246 245 246 248 248 249 248 246 245 244 242 241 239 238 238 239 238 237 237 237 237 238 239 240 241 241 242 242 243 243 244 245 246 247 248 249
280 277 274 272 267 261 260 258 251 248 247 248 249 248 246 246 248 247 244 241 240 239 238 237 238 238 237 237 237 238 238 239 241 242 242 242 243 243 244 246 246 247 248 249
283 280 274 271 269 263 262 262 256 251 251 250 250 248 245 246 246 246 244 241 240 240 239 238 238 237 237 237 238 239 238 239 240 241 242 242 243 243 244 245 246 247 248 249
287 284 281 278 273 269 265 262 257 253 252 254 253 247 246 246 245 244 243 241 239 238 239 238 237 238 237 238 238 239 239 239 240 241 242 242 242 244 244 245 246 248 249 250
288 287 284 280 277 273 268 263 257 254 252 253 250 248 248 246 244 241 240 239 238 237 237 237 236 236 237 238 239 239 240 240 240 241 242 241 242 243 244 245 246 248 249 251
288 286 284 283 280 274 269 264 259 256 254 250 248 248 248 247 245 240 239 238 237 237 236 236 236 237 237 237 238 239 239 240 240 242 243 243 243 244 245 246 247 248 249 251
284 286 284 281 277 273 269 264 260 257 254 251 249 247 248 249 248 242 239 238 238 238 238 238 238 238 238 238 238 239 241 241 241 243 243 244 245 246 247 248 249 250 251 252
286 287 286 283 278 274 269 265 262 261 256 256 255 252 251 250 249 245 242 239 237 237 238 237 237 238 239 239 239 240 241 242 242 243 244 245 246 248 249 250 252 253 253 254
286 284 285 283 281 277 273 269 268 265 262 259 260 255 251 251 248 246 244 242 239 237 238 238 237 236 238 240 241 241 242 242 242 242 243 245 246 248 250 252 253 253 254 255
284 281 281 282 280 277 274 269 268 269 266 261 259 256 252 248 245 245 245 244 241 238 238 237 237 237 237 238 239 240 241 241 241 242 243 245 247 248 249 250 252 253 253 255
284 281 280 281 282 279 275 271 269 269 267 265 262 260 256 250 246 246 244 242 240 239 238 238 238 237 236 237 238 239 240 241 242 243 244 246 247 247 249 251 253 254 255 256
285 283 279 280 281 281 278 272 271 271 269 266 263 260 256 253 250 247 245 243 240 239 240 239 238 238 237 237 238 239 241 242 242 243 244 246 247 248 250 252 254 255 255 255
Height
5624 5625 5626 5628 5630 5632 5634 5638 5642 5647 5650 5653 5658 5663 5668 5672 5676 5681 5686 5691 5696 5700 5705 5710 5714 5719 5724 5729 5734 5738 5742 5747 5752 5756 5759 5763 5766 5769 5772 5774 5777 5779 5782 5784
5613 5613 5615 5614 5616 5618 5621 5624 5629 5634 5638 5641 5645 5651 5656 5661 5666 5671 5676 5681 5686 5690 5695 5700 5705 5710 5715 5720 5725 5730 5734 5739 5743 5748 5752 5755 5759 5762 5765 5767 5770 5773 5775 5777
5601 5602 5601 5601 5603 5605 5608 5612 5617 5621 5624 5628 5632 5638 5644 5650 5654 5660 5665 5671 5675 5680 5685 5690 5695 5700 5706 5711 5716 5721 5725 5730 5734 5739 5743 5747 5750 5753 5757 5760 5763 5765 5768 5770
5589 5590 5589 5590 5591 5593 5597 5601 5605 5608 5611 5615 5620 5623 5634 5638 5643 5649 5655 5660 5666 5670 5675 5680 5685 5691 5696 5701 5706 5711 5716 5720 5725 5729 5734 5738 5742 5746 5749 5752 5755 5758 5760 5763
5579 5579 5579 5579 5581 5583 5586 5590 5593 5596 5599 5603 5608 5612 5621 5627 5632 5639 5644 5650 5655 5660 5664 5669 5675 5681 5686 5691 5696 5701 5706 5711 5716 5720 5725 5729 5733 5737 5740 5743 5746 5749 5752 5755
5569 5568 5568 5570 5571 5572 5575 5579 5582 5584 5587 5590 5597 5601 5607 5616 5622 5628 5633 5638 5644 5648 5653 5658 5664 5670 5675 5681 5687 5692 5697 5702 5706 5711 5715 5719 5723 5727 5731 5734 5737 5741 5744 5746
5561 5560 5559 5560 5562 5563 5565 5568 5570 5572 5575 5579 5587 5588 5596 5605 5611 5616 5621 5627 5632 5637 5642 5648 5653 5659 5665 5671 5676 5682 5687 5692 5697 5701 5705 5710 5713 5717 5721 5724 5728 5731 5734 5737
5551 5552 5551 5550 5552 5554 5556 5558 5561 5563 5565 5570 5574 5576 5585 5593 5599 5605 5610 5615 5620 5626 5632 5637 5643 5649 5655 5660 5666 5671 5677 5682 5686 5691 5695 5699 5703 5707 5711 5714 5718 5721 5724 5728
5543 5543 5543 5542 5542 5544 5546 5548 5551 5554 5556 5559 5562 5567 5574 5581 5586 5592 5598 5603 5609 5615 5621 5626 5631 5637 5643 5649 5655 5660 5666 5671 5675 5680 5684 5688 5693 5697 5700 5704 5708 5711 5714 5718
5534 5534 5535 5534 5534 5535 5538 5540 5543 5545 5547 5549 5553 5558 5564 5570 5574 5580 5587 5592 5598 5604 5610 5615 5620 5626 5632 5638 5643 5649 5654 5659 5664 5669 5673 5677 5681 5686 5689 5693 5697 5701 5704 5707
5527 5526 5527 5526 5525 5527 5529 5532 5534 5536 5538 5541 5544 5551 5555 5559 5564 5569 5575 5581 5587 5593 5599 5604 5610 5615 5621 5626 5632 5637 5642 5647 5652 5657 5661 5666 5670 5674 5678 5682 5686 5690 5693 5697
5519 5518 5518 5519 5519 5519 5521 5523 5526 5529 5531 5534 5536 5544 5546 5550 5554 5559 5564 5570 5576 5582 5587 5593 5599 5604 5610 5615 5620 5625 5631 5635 5640 5645 5649 5654 5658 5662 5667 5671 5674 5678 5682 5686
5512 5511 5510 5511 5514 5513 5513 5515 5518 5521 5524 5526 5529 5535 5537 5540 5544 5549 5554 5559 5565 5570 5576 5582 5587 5593 5598 5604 5609 5614 5619 5623 5628 5633 5637 5642 5646 5651 5655 5659 5663 5666 5670 5674
5504 5503 5503 5504 5504 5504 5506 5508 5511 5513 5515 5518 5521 5525 5528 5531 5535 5539 5544 5549 5554 5559 5565 5570 5576 5582 5587 5592 5597 5602 5607 5612 5616 5621 5625 5630 5634 5639 5643 5647 5650 5654 5658 5662
5497 5497 5496 5496 5496 5497 5498 5501 5503 5505 5507 5510 5513 5516 5519 5522 5526 5530 5534 5539 5544 5549 5554 5559 5565 5570 5575 5581 5586 5591 5595 5600 5604 5609 5614 5618 5622 5626 5630 5634 5638 5642 5646 5650
5491 5491 5490 5490 5490 5490 5491 5493 5495 5497 5499 5501 5504 5508 5511 5513 5517 5521 5525 5529 5533 5538 5543 5548 5553 5558 5564 5569 5574 5579 5583 5588 5593 5597 5602 5606 5610 5615 5619 5622 5626 5630 5634 5637
5486 5485 5484 5484 5484 5484 5485 5487 5488 5489 5491 5493 5496 5500 5502 5505 5508 5511 5515 5519 5523 5528 5533 5537 5542 5547 5552 5557 5562 5567 5572 5576 5581 5586 5590 5594 5599 5603 5607 5611 5615 5618 5622 5625
5480 5479 5478 5478 5479 5478 5481 5480 5481 5482 5484 5485 5488 5491 5493 5496 5499 5502 5506 5510 5514 5519 5523 5527 5532 5537 5541 5546 5550 5555 5560 5565 5570 5574 5579 5583 5588 5592 5596 5600 5603 5607 5610 5614
5476 5475 5474 5473 5472 5472 5474 5474 5475 5476 5478 5479 5481 5483 5486 5488 5491 5494 5497 5501 5505 5509 5513 5518 5522 5526 5531 5535 5539 5544 5549 5554 5558 5563 5567 5571 5576 5580 5584 5588 5592 5595 5599 5602
5472 5471 5470 5468 5468 5468 5470 5469 5469 5471 5472 5474 5475 5476 5478 5481 5484 5487 5489 5493 5496 5500 5504 5508 5512 5516 5521 5525 5529 5534 5538 5543 5547 5552 5556 5560 5564 5568 5572 5576 5580 5583 5586 5590
5468 5467 5465 5464 5464 5464 5465 5464 5465 5468 5468 5468 5469 5470 5472 5474 5477 5480 5482 5485 5488 5492 5495 5499 5503 5507 5511 5515 5520 5524 5528 5532 5537 5541 5545 5549 5553 5557 5561 5565 5568 5571 5575 5578
5464 5463 5462 5461 5461 5463 5461 5460 5462 5462 5462 5463 5464 5465 5466 5468 5470 5472 5475 5477 5480 5484 5487 5490 5494 5498 5502 5506 5510 5514 5518 5522 5526 5530 5534 5538 5542 5546 5550 5553 5556 5559 5563 5565
5460 5460 5458 5458 5459 5458 5456 5456 5457 5457 5457 5458 5459 5460 5461 5462 5464 5466 5468 5470 5473 5476 5479 5482 5486 5490 5493 5497 5501 5504 5508 5512 5516 5520 5524 5528 5531 5535 5538 5542 5545 5547 5550 5553
5456 5455 5455 5454 5454 5454 5453 5453 5453 5452 5452 5453 5453 5454 5455 5456 5458 5460 5461 5463 5466 5469 5472 5475 5478 5482 5485 5488 5491 5495 5498 5502 5506 5510 5513 5517 5521 5524 5527 5530 5533 5536 5538 5540
5453 5452 5451 5450 5450 5450 5450 5449 5449 5448 5448 5448 5448 5449 5450 5451 5452 5454 5455 5457 5459 5462 5464 5468 5471 5474 5477 5480 5483 5486 5489 5493 5497 5500 5504 5507 5511 5514 5517 5520 5523 5525 5527 5529
5448 5448 5448 5447 5446 5446 5446 5445 5444 5444 5444 5443 5443 5444 5445 5445 5446 5448 5450 5451 5453 5456 5458 5461 5464 5466 5469 5472 5475 5478 5481 5484 5488 5491 5495 5498 5501 5504 5507 5509 5512 5513 5516 5517